Location: Sungai Liu
(2.3667°N, 113.8667°E)
Time: 13:02:26
(UTC+00:00)

ATLAS 5 CENTAUR R/B - Pass Details

Date: 20 May 2022
Orbit: 479 x 1172 km, 63.3° (Epoch: 05 July)

Event Time Altitude Azimuth Distance (km) Brightness Sun altitude
Rises 13:02:14 0° 337° (NNW) 3,707 6.1 -36.3°
Reaches altitude 10° 13:04:42 10° 337° (NNW) 2,840 5.4 -36.9°
Enters shadow 13:09:06 45° 338° (NNW) 1,469 3.5 -37.9°
